• In Belarus
  • List of Countries
  • For 7 days
  • Water Temperature
  • Weather Map
  • Weather Widgets
  • user-avatar
    Login

    Hourly Weather Yeghegnadzor

    Today, 22 January, Wednesday

    Time Temperature Precipitation Wind Pressure Humidity
    00:00 -6°C° 0 mm 1 mps 654 mmHg 70%
    01:00 -7°C° 0 mm 1 mps 653 mmHg 69%
    02:00 -7°C° 0 mm 1 mps 653 mmHg 68%
    03:00 -7°C° 0 mm 1 mps 653 mmHg 65%
    04:00 -7°C° 0 mm 1 mps 653 mmHg 65%
    05:00 -7°C° 0 mm 1 mps 653 mmHg 64%
    06:00 -8°C° 0 mm 0 mps 652 mmHg 63%
    07:00 -7°C° 0 mm 0 mps 653 mmHg 62%
    08:00 -5°C° 0 mm 0 mps 653 mmHg 61%
    09:00 -3°C° 0 mm 1 mps 654 mmHg 58%
    10:00 -2°C° 0 mm 1 mps 653 mmHg 58%
    11:00 -1°C° 0 mm 1 mps 653 mmHg 57%
    12:00 -2°C° 0 mm 2 mps 653 mmHg 57%
    13:00 -2°C° 0 mm 2 mps 653 mmHg 59%
    14:00 0°C° 0 mm 1 mps 652 mmHg 62%
    15:00 0°C° 0 mm 1 mps 652 mmHg 64%
    16:00 -1°C° 0 mm 1 mps 651 mmHg 65%
    17:00 -3°C° 0 mm 1 mps 651 mmHg 65%
    18:00 -4°C° 0 mm 1 mps 651 mmHg 66%
    19:00 -4°C° 0 mm 1 mps 651 mmHg 63%
    20:00 -4°C° 0 mm 1 mps 650 mmHg 61%
    21:00 -6°C° 0 mm 1 mps 650 mmHg 58%
    22:00 -6°C° 0 mm 1 mps 650 mmHg 57%
    23:00 -6°C° 0 mm 1 mps 650 mmHg 56%

    Tomorrow, 23 January, Thursday

    Time Temperature Precipitation Wind Pressure Humidity
    00:00 -6°C° 0 mm 1 mps 649 mmHg 55%
    01:00 -7°C° 0 mm 1 mps 649 mmHg 56%
    02:00 -7°C° 0 mm 1 mps 648 mmHg 57%
    03:00 -7°C° 0 mm 1 mps 648 mmHg 58%
    04:00 -7°C° 0 mm 1 mps 647 mmHg 58%
    05:00 -8°C° 0 mm 1 mps 647 mmHg 59%
    06:00 -8°C° 0 mm 1 mps 647 mmHg 59%
    07:00 -7°C° 0 mm 1 mps 647 mmHg 59%
    08:00 -4°C° 0 mm 1 mps 647 mmHg 58%
    09:00 -3°C° 0 mm 1 mps 647 mmHg 58%
    10:00 -2°C° 0 mm 1 mps 647 mmHg 56%
    11:00 -1°C° 0 mm 1 mps 647 mmHg 55%
    12:00 -2°C° 0 mm 2 mps 646 mmHg 54%
    13:00 -2°C° 0 mm 2 mps 646 mmHg 56%
    14:00 -2°C° 0 mm 2 mps 645 mmHg 57%
    15:00 -2°C° 0 mm 2 mps 645 mmHg 59%
    16:00 -1°C° 0 mm 1 mps 645 mmHg 62%
    17:00 -2°C° 0 mm 1 mps 645 mmHg 66%
    18:00 -3°C° 0 mm 1 mps 645 mmHg 70%
    19:00 -3°C° 0.1 mm 1 mps 645 mmHg 71%
    20:00 -3°C° 0.1 mm 1 mps 645 mmHg 72%
    21:00 -4°C° 0.1 mm 1 mps 646 mmHg 73%
    22:00 -4°C° 0.1 mm 1 mps 646 mmHg 77%
    23:00 -4°C° 0.1 mm 1 mps 646 mmHg 80%

    Day after tomorrow, 24 January, Friday

    Time Temperature Precipitation Wind Pressure Humidity
    00:00 -5°C° 0.1 mm 0 mps 646 mmHg 84%
    01:00 -5°C° 0.2 mm 0 mps 646 mmHg 87%
    02:00 -5°C° 0.2 mm 0 mps 646 mmHg 90%
    03:00 -5°C° 0.2 mm 0 mps 646 mmHg 93%
    04:00 -6°C° 0 mm 0 mps 646 mmHg 93%
    05:00 -6°C° 0 mm 0 mps 646 mmHg 92%
    06:00 -6°C° 0 mm 0 mps 647 mmHg 91%
    07:00 -5°C° 0.1 mm 0 mps 647 mmHg 90%
    08:00 -5°C° 0.1 mm 0 mps 648 mmHg 89%
    09:00 -4°C° 0.1 mm 0 mps 649 mmHg 88%
    10:00 -3°C° 0.1 mm 1 mps 649 mmHg 84%
    11:00 -4°C° 0.1 mm 2 mps 649 mmHg 80%
    12:00 -3°C° 0.1 mm 2 mps 649 mmHg 77%
    13:00 -4°C° 0.1 mm 2 mps 649 mmHg 74%
    14:00 -4°C° 0.1 mm 2 mps 649 mmHg 71%
    15:00 -4°C° 0.1 mm 2 mps 650 mmHg 69%
    16:00 -4°C° 0.1 mm 2 mps 650 mmHg 70%
    17:00 -5°C° 0.1 mm 2 mps 651 mmHg 71%
    18:00 -6°C° 0.1 mm 2 mps 651 mmHg 73%
    19:00 -7°C° 0 mm 2 mps 652 mmHg 70%
    20:00 -8°C° 0 mm 2 mps 652 mmHg 66%
    21:00 -8°C° 0 mm 2 mps 653 mmHg 63%
    22:00 -9°C° 0 mm 2 mps 653 mmHg 61%
    23:00 -10°C° 0 mm 2 mps 653 mmHg 58%

    25 January, Saturday

    Time Temperature Precipitation Wind Pressure Humidity
    00:00 -12°C° 0 mm 2 mps 654 mmHg 56%
    01:00 -10°C° 0 mm 1 mps 654 mmHg 53%
    02:00 -10°C° 0 mm 1 mps 654 mmHg 50%
    03:00 -11°C° 0 mm 1 mps 654 mmHg 47%
    04:00 -11°C° 0 mm 1 mps 654 mmHg 45%
    05:00 -11°C° 0 mm 1 mps 654 mmHg 43%
    06:00 -12°C° 0 mm 1 mps 654 mmHg 42%
    07:00 -10°C° 0 mm 1 mps 655 mmHg 42%
    08:00 -9°C° 0 mm 0 mps 656 mmHg 43%
    09:00 -8°C° 0 mm 0 mps 657 mmHg 44%
    10:00 -7°C° 0 mm 1 mps 657 mmHg 44%
    11:00 -4°C° 0 mm 1 mps 657 mmHg 45%
    12:00 -3°C° 0 mm 1 mps 656 mmHg 45%
    13:00 -3°C° 0 mm 1 mps 656 mmHg 48%
    14:00 -3°C° 0 mm 1 mps 656 mmHg 50%
    15:00 -3°C° 0 mm 1 mps 655 mmHg 53%
    16:00 -4°C° 0 mm 1 mps 655 mmHg 52%
    17:00 -7°C° 0 mm 1 mps 655 mmHg 52%
    18:00 -8°C° 0 mm 1 mps 654 mmHg 52%
    19:00 -8°C° 0 mm 1 mps 654 mmHg 50%
    20:00 -8°C° 0 mm 1 mps 654 mmHg 49%
    21:00 -8°C° 0 mm 1 mps 654 mmHg 47%
    22:00 -8°C° 0 mm 1 mps 654 mmHg 48%
    23:00 -8°C° 0 mm 1 mps 654 mmHg 48%

    26 January, Sunday

    Time Temperature Precipitation Wind Pressure Humidity
    00:00 -8°C° 0 mm 1 mps 654 mmHg 48%
    01:00 -9°C° 0 mm 0 mps 653 mmHg 48%
    02:00 -9°C° 0 mm 0 mps 653 mmHg 48%
    03:00 -9°C° 0 mm 0 mps 653 mmHg 48%
    04:00 -9°C° 0 mm 0 mps 653 mmHg 49%
    05:00 -9°C° 0 mm 0 mps 653 mmHg 50%
    06:00 -9°C° 0 mm 0 mps 653 mmHg 51%
    07:00 -7°C° 0 mm 0 mps 653 mmHg 51%
    08:00 -6°C° 0 mm 0 mps 654 mmHg 51%
    09:00 -5°C° 0 mm 0 mps 655 mmHg 51%
    10:00 -3°C° 0 mm 1 mps 654 mmHg 50%
    11:00 -2°C° 0 mm 1 mps 654 mmHg 49%
    12:00 0°C° 0 mm 1 mps 654 mmHg 48%
    13:00 0°C° 0 mm 1 mps 654 mmHg 51%
    14:00 0°C° 0 mm 1 mps 654 mmHg 53%
    15:00 0°C° 0 mm 1 mps 653 mmHg 56%
    16:00 -1°C° 0 mm 1 mps 653 mmHg 55%
    17:00 -3°C° 0 mm 1 mps 653 mmHg 55%
    18:00 -4°C° 0 mm 1 mps 652 mmHg 55%
    19:00 -6°C° 0 mm 1 mps 652 mmHg 54%
    20:00 -6°C° 0 mm 1 mps 652 mmHg 53%
    21:00 -6°C° 0 mm 1 mps 652 mmHg 52%
    22:00 -6°C° 0 mm 1 mps 652 mmHg 52%
    23:00 -6°C° 0 mm 1 mps 653 mmHg 53%

    27 January, Monday

    Time Temperature Precipitation Wind Pressure Humidity
    00:00 -5°C° 0 mm 0 mps 653 mmHg 53%
    01:00 -5°C° 0 mm 0 mps 653 mmHg 54%
    02:00 -6°C° 0 mm 0 mps 653 mmHg 55%
    03:00 -6°C° 0 mm 0 mps 653 mmHg 55%
    04:00 -6°C° 0 mm 0 mps 653 mmHg 56%
    05:00 -6°C° 0 mm 0 mps 654 mmHg 57%
    06:00 -6°C° 0 mm 1 mps 654 mmHg 58%
    07:00 -4°C° 0 mm 1 mps 655 mmHg 58%
    08:00 -3°C° 0 mm 1 mps 656 mmHg 58%
    09:00 -2°C° 0 mm 1 mps 657 mmHg 58%
    10:00 -1°C° 0 mm 1 mps 657 mmHg 58%
    11:00 0°C° 0 mm 1 mps 657 mmHg 57%
    12:00 +1°C° 0 mm 1 mps 658 mmHg 57%
    13:00 +1°C° 0 mm 1 mps 658 mmHg 58%
    14:00 +1°C° 0 mm 1 mps 658 mmHg 60%
    15:00 +1°C° 0 mm 1 mps 658 mmHg 62%
    16:00 -1°C° 0 mm 1 mps 658 mmHg 65%
    17:00 -2°C° 0 mm 1 mps 658 mmHg 68%
    18:00 -5°C° 0 mm 0 mps 658 mmHg 71%
    19:00 -4°C° 0 mm 1 mps 658 mmHg 70%
    20:00 -4°C° 0 mm 1 mps 658 mmHg 69%
    21:00 -4°C° 0 mm 1 mps 659 mmHg 67%
    22:00 -4°C° 0 mm 1 mps 659 mmHg 68%
    23:00 -6°C° 0 mm 1 mps 659 mmHg 69%
    Show more